[[{"header":{"parameterUnit":"m.s-1","parameterCategory":1,"la1":30.2991,"la2":30.254,"lo1":-89.0895,"lo2":-89.0444,"dy":0.0017,"dx":0.0017,"nx":28,"ny":28,"refTime":"2024-02-16T09:00:00:Z","depth":0,"parameterNumber":2,"parameterNumberName":"U-component_of_WINDS"},"data":[0,0,0,0,0,0,0,0,0,0,0,0,0,0,0,0,0,0,0,0,0,0,0,0,0,0,0,0,0,0,0,0,0,0,0,0,0,0,0,0,0,0,0,0,0,0,0,0,0,0,0,0,0,0,0,0,0,0,-0.1909,-0.191,0,-0.1952,-0.1953,-0.1953,-0.194,-0.1939,-0.1938,-0.1937,-0.1984,-0.1986,-0.1988,0,0,0,0,0,0,0,0,0,0,0,0,0,-0.1817,-0.1818,-0.1909,-0.191,-0.191,-0.1952,-0.1953,-0.1953,-0.194,-0.1939,-0.1938,-0.1937,-0.1983,-0.1985,-0.1988,0,0,0,0,0,0,0,0,0,0,0,0,0,-0.1858,-0.1819,-0.1909,-0.1909,-0.1909,-0.1952,-0.1953,-0.1954,-0.194,-0.1939,-0.1938,-0.1936,-0.1982,-0.1985,-0.1988,-0.2035,0,0,-0.1998,-0.1999,0,0,0,0,0,0,0,0,-0.1856,-0.1861,-0.1908,-0.1909,-0.1909,-0.1939,-0.1937,-0.1981,-0.1941,-0.1929,-0.1937,-0.1936,-0.197,-0.1974,-0.1985,-0.2037,-0.2039,-0.1998,-0.2,-0.2001,-0.2002,0,0,0,0,0,0,0,-0.1853,-0.186,-0.1926,-0.1909,-0.191,-0.1907,-0.1911,-0.1945,-0.1957,-0.193,-0.1929,-0.1934,-0.197,-0.1982,-0.1986,-0.204,-0.1998,-0.2001,-0.2003,-0.2004,-0.2131,-0.2133,0,0,0,0,0,0,-0.1849,-0.1857,-0.1925,-0.1928,-0.1879,-0.191,-0.1914,-0.1931,-0.1956,-0.1959,-0.1935,-0.1933,-0.1978,-0.1983,-0.1988,-0.2044,-0.2001,-0.2004,-0.2006,-0.213,-0.2132,-0.2133,0,0,0,0,0,0,-0.1847,-0.1856,-0.1923,-0.1892,-0.1901,-0.1913,-0.1931,-0.1933,-0.1945,-0.196,-0.1962,-0.1945,-0.1977,-0.1984,-0.2023,-0.2046,-0.2006,-0.2008,-0.2128,-0.213,-0.2132,-0.2157,0,0,0,0,0,0,-0.1845,-0.1855,-0.1873,-0.1893,-0.1902,-0.1958,-0.1933,-0.1935,-0.195,-0.1948,-0.197,-0.1973,-0.1976,-0.2018,-0.2026,-0.2049,-0.2011,-0.2126,-0.2129,-0.2132,-0.2155,-0.216,-0.2165,0,0,0,0,0,-0.1842,-0.1879,-0.1874,-0.1882,-0.1925,-0.1959,-0.1964,-0.1967,-0.1952,-0.197,-0.198,-0.1972,-0.2041,-0.2023,-0.2031,-0.2056,-0.2125,-0.2128,-0.2132,-0.2152,-0.2159,-0.2165,0,0,0,0,0,0,-0.1862,-0.1881,-0.1876,-0.192,-0.1938,-0.1957,-0.198,-0.1974,-0.1997,-0.1994,-0.1997,-0.2002,-0.2042,-0.2053,-0.2031,-0.2102,-0.2081,-0.2086,-0.2094,-0.21,-0.2105,-0.2103,-0.2013,0,0,0,0,0,-0.1871,-0.1897,-0.1913,-0.195,-0.1959,-0.1968,-0.1983,-0.1983,-0.2002,-0.2009,-0.2022,-0.2041,-0.2067,-0.2084,-0.2109,-0.2155,-0.216,-0.2176,-0.2181,-0.2185,-0.219,-0.2216,-0.2223,-0.2144,-0.2144,-0.2144,0,0,-0.1892,-0.1905,-0.1922,-0.1955,-0.1968,-0.1995,-0.1974,-0.2004,-0.2024,-0.2014,-0.2052,-0.2062,-0.2083,-0.2126,-0.2146,-0.2136,-0.2213,-0.219,-0.2193,-0.2196,-0.222,-0.2227,-0.2234,-0.2147,-0.2146,-0.2146,0,0,-0.1943,-0.1955,-0.1988,-0.2002,-0.2022,-0.2027,-0.2035,-0.2054,-0.206,-0.2098,-0.2091,-0.2115,-0.2159,-0.2175,-0.2188,-0.2243,-0.2237,-0.2251,-0.2279,-0.2303,-0.2309,-0.2315,-0.2335,-0.2342,-0.2255,-0.2255,-0.2256,0,-0.1966,-0.2006,-0.2006,-0.2036,-0.2051,-0.2041,-0.2075,-0.2088,-0.2116,-0.2126,-0.2114,-0.217,-0.2183,-0.223,-0.2243,-0.2254,-0.2263,-0.2249,-0.2308,-0.2314,-0.2319,-0.2338,-0.2346,-0.2257,-0.2257,-0.2257,-0.2257,0,-0.2033,-0.2061,-0.2085,-0.2111,-0.2128,-0.216,-0.2165,-0.2182,-0.218,-0.2187,-0.2225,-0.2241,-0.2268,-0.2279,-0.2278,-0.2325,-0.2318,-0.2307,-0.2287,-0.2328,-0.2346,-0.2354,-0.2259,-0.2259,-0.2258,-0.2258,0,0,-0.21,-0.2125,-0.2134,-0.2145,-0.2166,-0.2188,-0.2218,-0.2244,-0.226,-0.2278,-0.2305,-0.2342,-0.2331,-0.2347,-0.2347,-0.2368,-0.2411,-0.2354,-0.2355,-0.2365,-0.2464,-0.2473,-0.2482,-0.2406,-0.2408,-0.2409,-0.2463,0,-0.2154,-0.2207,-0.2208,-0.2257,-0.2283,-0.2273,-0.23,-0.2316,-0.2322,-0.2345,-0.2352,-0.2379,-0.2363,-0.2372,-0.2392,-0.2401,-0.2431,-0.2397,-0.2431,-0.2433,-0.2428,-0.2491,-0.2501,-0.2552,-0.247,-0.2471,-0.2472,0,-0.2224,-0.2244,-0.2296,-0.2312,-0.2323,-0.2347,-0.2371,-0.2392,-0.241,-0.2413,-0.2429,-0.2426,-0.2457,-0.2434,-0.2478,-0.2455,-0.2468,-0.2475,-0.2477,-0.2481,-0.2456,-0.2498,-0.2568,-0.2576,-0.2483,-0.2482,-0.2481,0,-0.2268,-0.2308,-0.2345,-0.2355,-0.2375,-0.2392,-0.2401,-0.2417,-0.2432,-0.2453,-0.2463,-0.2487,-0.25,-0.2519,-0.2522,-0.2505,-0.2565,-0.2543,-0.2569,-0.2569,-0.2584,-0.2583,-0.2658,-0.2591,-0.2591,-0.2591,-0.259,0,-0.2329,-0.2361,-0.2365,-0.2387,-0.2423,-0.2423,-0.2458,-0.2466,-0.248,-0.2504,-0.2497,-0.252,-0.2522,-0.2545,-0.2547,-0.2583,-0.2589,-0.2593,-0.2593,-0.2594,-0.2594,-0.2604,-0.2601,-0.2593,-0.2592,-0.2592,-0.2591,0,-0.2385,-0.2389,-0.2428,-0.2443,-0.2448,-0.2473,-0.2487,-0.2508,-0.2513,-0.2543,-0.255,-0.2558,-0.2585,-0.2589,-0.2621,-0.2622,-0.2665,-0.2662,-0.266,-0.2659,-0.2686,-0.2684,-0.2771,-0.2782,-0.2707,-0.2708,-0.2708,0,-0.2424,-0.2449,-0.2466,-0.2481,-0.2491,-0.2516,-0.2531,-0.2531,-0.2547,-0.2568,-0.2587,-0.2613,-0.2634,-0.2677,-0.2686,-0.271,-0.2708,-0.2736,-0.2711,-0.2711,-0.2709,-0.2708,-0.2711,-0.2742,-0.2742,-0.2743,-0.2744,0,-0.2493,-0.2494,-0.2516,-0.2538,-0.2556,-0.2574,-0.2591,-0.2603,-0.2606,-0.2624,-0.2651,-0.2667,-0.2699,-0.2725,-0.2748,-0.2758,-0.2752,-0.2751,-0.2759,-0.276,-0.2758,-0.276,-0.2674,-0.275,-0.2749,-0.2749,-0.2748,-0.2748,-0.2543,-0.2564,-0.258,-0.2604,-0.2616,-0.2632,-0.2652,-0.2659,-0.2681,-0.2707,-0.2705,-0.2735,-0.2751,-0.2782,-0.2793,-0.2816,-0.2807,-0.2818,-0.2821,-0.2824,-0.2827,-0.2753,-0.282,-0.282,-0.282,-0.282,-0.282,0,-0.2612,-0.2621,-0.2644,-0.2667,-0.2686,-0.2676,-0.2694,-0.2711,-0.2737,-0.2752,-0.2772,-0.2803,-0.2828,-0.2837,-0.2862,-0.2878,-0.2876,-0.2885,-0.2884,-0.2887,-0.2833,-0.2825,-0.2886,-0.2886,-0.2886,-0.2886,-0.2886,-0.2886,-0.2651,-0.2686,-0.2688,-0.2729,-0.2738,-0.2766,-0.2777,-0.2792,-0.2803,-0.2838,-0.2858,-0.2864,-0.2877,-0.2901,-0.2924,-0.2926,-0.2935,-0.2946,-0.2947,-0.2897,-0.289,-0.2884,-0.2876,-0.2948,-0.2948,-0.2998,-0.2999,-0.2999]},{"header":{"parameterUnit":"m.s-1","parameterCategory":1,"la1":30.2991,"la2":30.254,"lo1":-89.0895,"lo2":-89.0444,"dy":0.0017,"dx":0.0017,"nx":28,"ny":28,"refTime":"2024-02-16T09:00:00:Z","depth":0,"parameterNumber":3,"parameterNumberName":"V-component_of_WINDS"},"data":[0,0,0,0,0,0,0,0,0,0,0,0,0,0,0,0,0,0,0,0,0,0,0,0,0,0,0,0,0,0,0,0,0,0,0,0,0,0,0,0,0,0,0,0,0,0,0,0,0,0,0,0,0,0,0,0,0,0,-8.1743,-8.1744,0,-8.1856,-8.1858,-8.1859,-8.1798,-8.1795,-8.1792,-8.1789,-8.1897,-8.1903,-8.1909,0,0,0,0,0,0,0,0,0,0,0,0,0,-8.1468,-8.1473,-8.1743,-8.1744,-8.1746,-8.1856,-8.1858,-8.1859,-8.1799,-8.1795,-8.1791,-8.1788,-8.1895,-8.1902,-8.1909,0,0,0,0,0,0,0,0,0,0,0,0,0,-8.1584,-8.1475,-8.1743,-8.1729,-8.1729,-8.1856,-8.1858,-8.186,-8.1799,-8.1795,-8.179,-8.1786,-8.1893,-8.1902,-8.191,-8.2054,0,0,-8.1936,-8.194,0,0,0,0,0,0,0,0,-8.1578,-8.1595,-8.173,-8.173,-8.173,-8.1809,-8.18,-8.1925,-8.1801,-8.1772,-8.1789,-8.1784,-8.1871,-8.1881,-8.1912,-8.2059,-8.2064,-8.1937,-8.1942,-8.1946,-8.1948,0,0,0,0,0,0,0,-8.157,-8.1589,-8.1787,-8.1732,-8.1732,-8.1715,-8.1727,-8.1823,-8.1846,-8.1775,-8.177,-8.1785,-8.187,-8.1904,-8.1914,-8.2066,-8.1937,-8.1944,-8.195,-8.1953,-8.2338,-8.2342,0,0,0,0,0,0,-8.1564,-8.1583,-8.1784,-8.1791,-8.1642,-8.1724,-8.1737,-8.1788,-8.1845,-8.1849,-8.1789,-8.1782,-8.1892,-8.1904,-8.1918,-8.2091,-8.1946,-8.1954,-8.1959,-8.2333,-8.2339,-8.2344,0,0,0,0,0,0,-8.1558,-8.1582,-8.1779,-8.1686,-8.171,-8.1734,-8.1791,-8.1793,-8.1826,-8.1856,-8.1858,-8.182,-8.1888,-8.1906,-8.2022,-8.2094,-8.1958,-8.1966,-8.2327,-8.2334,-8.2341,-8.2439,0,0,0,0,0,0,-8.155,-8.158,-8.1637,-8.1688,-8.1715,-8.1884,-8.1796,-8.1798,-8.1842,-8.1834,-8.1885,-8.1889,-8.1886,-8.2009,-8.203,-8.2104,-8.1972,-8.232,-8.233,-8.2339,-8.243,-8.2449,-8.2466,0,0,0,0,0,-8.1541,-8.1658,-8.164,-8.1665,-8.1787,-8.1888,-8.1903,-8.19,-8.1848,-8.1905,-8.1923,-8.1888,-8.2083,-8.2022,-8.2045,-8.2122,-8.2316,-8.2327,-8.2338,-8.2421,-8.2445,-8.2466,0,0,0,0,0,0,-8.1612,-8.1664,-8.1645,-8.1783,-8.1832,-8.1878,-8.1948,-8.1925,-8.1987,-8.1977,-8.1967,-8.1979,-8.21,-8.2122,-8.2053,-8.2265,-8.2191,-8.2208,-8.2246,-8.2269,-8.2287,-8.2279,-8.1979,0,0,0,0,0,-8.1644,-8.1725,-8.1765,-8.1882,-8.1908,-8.1925,-8.1968,-8.1962,-8.2011,-8.203,-8.2057,-8.2104,-8.2176,-8.2224,-8.2291,-8.2432,-8.2442,-8.2497,-8.2515,-8.253,-8.2544,-8.2621,-8.2646,-8.2382,-8.2382,-8.2381,0,0,-8.171,-8.1749,-8.18,-8.1898,-8.1935,-8.2017,-8.1942,-8.2031,-8.2091,-8.2043,-8.2155,-8.2177,-8.2228,-8.2358,-8.2416,-8.238,-8.262,-8.2544,-8.2556,-8.2562,-8.2635,-8.266,-8.2683,-8.2389,-8.2388,-8.2387,0,0,-8.1874,-8.1911,-8.2014,-8.2054,-8.2112,-8.2122,-8.2147,-8.2197,-8.2211,-8.2324,-8.229,-8.2359,-8.2484,-8.2522,-8.2558,-8.2738,-8.2708,-8.276,-8.2855,-8.293,-8.2951,-8.2969,-8.3034,-8.3057,-8.2774,-8.2775,-8.2775,0,-8.1948,-8.2072,-8.2069,-8.2162,-8.2206,-8.217,-8.2273,-8.231,-8.2387,-8.2417,-8.2376,-8.2532,-8.2564,-8.2703,-8.2747,-8.2777,-8.2804,-8.2754,-8.2949,-8.2967,-8.2984,-8.3046,-8.307,-8.2781,-8.278,-8.2779,-8.2779,0,-8.2161,-8.2248,-8.2323,-8.2402,-8.2454,-8.2552,-8.2562,-8.2614,-8.2604,-8.2618,-8.2733,-8.2771,-8.2846,-8.2878,-8.2867,-8.3016,-8.2991,-8.295,-8.2876,-8.3016,-8.3073,-8.3097,-8.2789,-8.2787,-8.2785,-8.2784,0,0,-8.2371,-8.2449,-8.2477,-8.2513,-8.2575,-8.2641,-8.2736,-8.2813,-8.2859,-8.2912,-8.2992,-8.3098,-8.3061,-8.3102,-8.3095,-8.3161,-8.3302,-8.3111,-8.3112,-8.3146,-8.3468,-8.35,-8.3527,-8.3282,-8.3286,-8.329,-8.3464,0,-8.2539,-8.271,-8.2711,-8.2867,-8.2947,-8.2914,-8.2996,-8.3043,-8.3059,-8.3127,-8.3143,-8.3219,-8.3164,-8.3189,-8.3252,-8.3271,-8.3366,-8.3258,-8.3354,-8.3358,-8.3343,-8.3557,-8.359,-8.3753,-8.3486,-8.349,-8.3493,0,-8.2758,-8.2823,-8.2989,-8.3041,-8.3075,-8.315,-8.3221,-8.3287,-8.3338,-8.3345,-8.3392,-8.3375,-8.347,-8.3393,-8.3524,-8.3451,-8.349,-8.3505,-8.3511,-8.352,-8.3434,-8.3572,-8.3805,-8.3829,-8.3528,-8.3526,-8.3523,0,-8.2896,-8.3024,-8.3141,-8.3172,-8.3236,-8.329,-8.3318,-8.3365,-8.3412,-8.3473,-8.3503,-8.3573,-8.3611,-8.3665,-8.3667,-8.3611,-8.3799,-8.3722,-8.3807,-8.3807,-8.3848,-8.3845,-8.409,-8.3872,-8.3872,-8.3872,-8.3871,0,-8.3084,-8.3186,-8.3204,-8.3275,-8.3389,-8.3388,-8.3499,-8.3522,-8.3565,-8.3639,-8.3613,-8.3682,-8.3681,-8.375,-8.3752,-8.386,-8.3877,-8.3885,-8.3884,-8.3888,-8.3887,-8.3913,-8.3902,-8.3878,-8.3877,-8.3875,-8.3874,0,-8.3257,-8.3273,-8.3398,-8.3449,-8.3464,-8.3546,-8.3589,-8.3656,-8.367,-8.3764,-8.3785,-8.3807,-8.3888,-8.3895,-8.3988,-8.3989,-8.4121,-8.4107,-8.4105,-8.4102,-8.4187,-8.4179,-8.4458,-8.4494,-8.4252,-8.4254,-8.4256,0,-8.3376,-8.3455,-8.3516,-8.3566,-8.3598,-8.3677,-8.3726,-8.3727,-8.3778,-8.3844,-8.3903,-8.3982,-8.4046,-8.4177,-8.4199,-8.427,-8.4258,-8.4351,-8.4269,-8.427,-8.4261,-8.4256,-8.4264,-8.4367,-8.437,-8.4372,-8.4374,0,-8.3586,-8.3591,-8.3663,-8.374,-8.3799,-8.3858,-8.3913,-8.3954,-8.3962,-8.402,-8.4105,-8.4155,-8.4252,-8.433,-8.4401,-8.4427,-8.4402,-8.44,-8.4423,-8.4428,-8.4423,-8.4428,-8.4149,-8.4393,-8.4391,-8.439,-8.4389,-8.4388,-8.3737,-8.3806,-8.3861,-8.3942,-8.3985,-8.4037,-8.4104,-8.4128,-8.4199,-8.4281,-8.4276,-8.437,-8.4419,-8.4511,-8.4543,-8.4615,-8.4583,-8.4617,-8.4625,-8.4634,-8.4643,-8.4412,-8.4627,-8.4626,-8.4626,-8.4625,-8.4625,0,-8.3946,-8.398,-8.4056,-8.4136,-8.42,-8.4174,-8.4234,-8.4289,-8.4372,-8.4422,-8.4486,-8.4583,-8.466,-8.4689,-8.4764,-8.4815,-8.4806,-8.4835,-8.4831,-8.4838,-8.4666,-8.4639,-8.4841,-8.4841,-8.4841,-8.4841,-8.4841,-8.4841,-8.4063,-8.4179,-8.419,-8.4327,-8.4359,-8.4453,-8.449,-8.4538,-8.4578,-8.4689,-8.4754,-8.4773,-8.4815,-8.4892,-8.4961,-8.4967,-8.4996,-8.503,-8.5032,-8.4871,-8.4849,-8.4829,-8.4803,-8.5036,-8.5037,-8.5197,-8.5198,-8.5199]}]]